Terminal Aerodrome Forecast
Issued by NWS

Home | Current Version | Previous Version | Text Only | Print | Product List | Glossary On
Versions: 1 2 3 4 5 6 7 8 9 10 11 12 13
000
FTUS45 KVEF 310535
TAFBIH
TAF
KBIH 310535Z 3106/0106 31005KT P6SM FEW120 OVC200
     FM310800 32006KT P6SM FEW120 BKN200
     FM311900 17012G20KT P6SM VCTS SCT100CB BKN200
      TEMPO 3121/0101 VRB20G35KT P6SM FEW070CB BKN110
     FM010300 15011KT P6SM VCSH SCT100 BKN150=

USA.gov is the U.S. government's official web portal to all federal, state and local government web resources and services.